Location: Alta
(39.2070°N, 120.8111°W)
Time: 06:00:22
(UTC+00:00)

CZ-4B DEB - Pass Details

Date: 15 December 2023
Orbit: 838 x 858 km, 99.0° (Epoch: 02 March)

Event Time Altitude Azimuth Distance (km) Brightness Sun altitude
Rises 04:46:51 0° 223° (SW) 3,419 7.7 -46.7°
Drops below altitude 10° 04:51:54 10° 263° (W) 2,514 7.2 -47.7°
Maximum altitude 04:52:41 10° 271° (W) 2,495 7.2 -47.8°
Sets 04:58:34 0° 320° (NW) 3,438 7.8 -48.9°
